K3RTA-2 Weather Reports


Display with metric or nautical units.
time (UTC)temp
F
wind
direction
speed
MPH
gust
MPH
rain 1hr
in
rain 24hr
in
rain mn
in
humidity
%
barometer
mb
20240229110005 33 287 3.0 8.0 0.00 0.75 0.00 63 1025.2
20240229105504 33 319 2.0 6.0 0.00 0.75 0.00 64 1025.1
20240229105005 33 343 1.0 3.0 0.00 0.75 0.00 63 1025.0
20240229103504 34 316 2.0 6.0 0.00 0.75 0.00 60 1024.5
20240229103003 34 321 2.0 6.0 0.00 0.75 0.00 60 1024.4
20240229102505 34 307 3.0 13.0 0.00 0.75 0.00 60 1024.2
20240229102003 34 309 4.0 10.0 0.00 0.75 0.00 59 1024.1
20240229100004 34 301 3.0 12.0 0.00 0.75 0.00 60 1023.5
20240229095505 35 315 3.0 12.0 0.00 0.75 0.00 60 1023.2
20240229095004 35 319 4.0 12.0 0.00 0.75 0.00 60 1023.0
20240229094504 35 330 2.0 8.0 0.00 0.75 0.00 61 1023.0
20240229094005 35 317 5.0 12.0 0.00 0.75 0.00 60 1022.7
20240229093504 35 321 3.0 8.0 0.00 0.75 0.00 61 1022.7
20240229093004 35 279 2.0 12.0 0.00 0.75 0.00 61 1022.2
20240229092504 35 312 3.0 6.0 0.00 0.75 0.00 61 1022.2
20240229092005 35 304 4.0 15.0 0.00 0.75 0.00 61 1022.1
20240229091505 36 312 2.0 7.0 0.00 0.75 0.00 63 1022.0
20240229091004 36 287 2.0 5.0 0.00 0.75 0.00 63 1021.8
20240229090505 36 303 1.0 6.0 0.00 0.75 0.00 63 1021.5
20240229090005 36 302 1.0 5.0 0.00 0.75 0.00 62 1021.4
20240229085504 36 316 2.0 5.0 0.00 0.75 0.00 62 1021.5
20240229085003 36 325 2.0 12.0 0.00 0.75 0.00 61 1021.2
20240229084505 37 287 2.0 6.0 0.00 0.75 0.00 60 1020.9
20240229084004 37 340 2.0 10.0 0.00 0.75 0.00 60 1020.8
20240229083504 37 310 5.0 10.0 0.00 0.75 0.00 59 1020.8
20240229083004 37 315 2.0 12.0 0.00 0.75 0.00 60 1020.7
20240229082504 37 298 2.0 7.0 0.00 0.75 0.00 60 1020.5
20240229082004 37 308 2.0 6.0 0.00 0.75 0.00 59 1020.3
20240229081004 38 326 6.0 14.0 0.00 0.75 0.00 58 1019.8
20240229080504 38 313 5.0 16.0 0.00 0.75 0.00 58 1019.7
20240229080005 38 298 1.0 8.0 0.00 0.75 0.00 59 1019.5
20240229075504 38 287 3.0 12.0 0.00 0.75 0.00 57 1019.5
20240229075003 38 287 2.0 8.0 0.00 0.75 0.00 58 1019.3
20240229074505 39 306 3.0 12.0 0.00 0.75 0.00 57 1019.1
20240229074003 39 322 6.0 17.0 0.00 0.75 0.00 55 1019.0
20240229073003 39 316 5.0 17.0 0.00 0.75 0.00 57 1018.7
20240229072505 39 310 4.0 14.0 0.00 0.75 0.00 59 1018.6
20240229072004 40 305 4.0 13.0 0.00 0.75 0.00 59 1018.3
20240229071005 40 328 5.0 12.0 0.00 0.75 0.00 61 1018.1
20240229070504 40 285 5.0 12.0 0.00 0.75 0.00 61 1018.0
20240229070004 40 310 3.0 9.0 0.00 0.75 0.00 61 1017.9
20240229065504 41 324 3.0 8.0 0.00 0.75 0.00 61 1017.9
20240229065003 41 334 2.0 7.0 0.00 0.75 0.00 62 1017.7
20240229064505 41 317 1.0 5.0 0.00 0.75 0.00 62 1017.5
20240229064004 41 280 3.0 10.0 0.00 0.75 0.00 62 1017.5
20240229063504 42 299 2.0 14.0 0.00 0.75 0.00 62 1017.3
20240229063004 42 294 5.0 12.0 0.00 0.75 0.00 62 1017.2
20240229062503 42 326 5.0 14.0 0.00 0.75 0.00 62 1017.0
20240229062004 43 342 3.0 18.0 0.00 0.75 0.00 63 1016.9
20240229061503 43 324 5.0 12.0 0.00 0.75 0.00 61 1016.6
20240229061004 43 324 5.0 10.0 0.00 0.75 0.00 59 1016.4
20240229060504 43 334 7.0 17.0 0.00 0.75 0.00 58 1016.3
20240229055505 44 313 7.0 17.0 0.00 0.75 0.00 57 1016.1
20240229055003 44 331 5.0 23.0 0.00 0.75 0.00 61 1015.9
20240229054505 45 312 5.0 20.0 0.00 0.75 0.00 61 1015.7
20240229053505 45 307 2.0 14.0 0.00 0.75 0.00 66 1015.3
20240229053003 45 326 3.0 8.0 0.00 0.75 0.00 66 1015.0
20240229052505 46 293 5.0 20.0 0.00 0.75 0.00 65 1014.6
20240229052003 46 314 3.0 13.0 0.00 0.75 0.00 65 1014.5
20240229051504 46 300 3.0 12.0 0.00 0.75 0.00 64 1014.3
20240229050503 46 297 3.0 12.0 0.00 0.75 0.00 64 1014.0
20240229045504 47 314 5.0 15.0 0.00 0.75 0.75 65 1013.6
20240229045003 46 290 5.0 15.0 0.00 0.75 0.75 66 1013.3
20240229044504 47 260 2.0 14.0 0.00 0.75 0.75 67 1013.3
20240229043504 47 334 5.0 26.0 0.00 0.75 0.75 66 1013.0
20240229043005 47 325 6.0 20.0 0.00 0.75 0.75 65 1012.6
20240229042503 47 297 7.0 17.0 0.00 0.75 0.75 68 1013.0
20240229042006 47 303 4.0 12.0 0.01 0.75 0.75 72 1012.4
20240229041504 47 294 6.0 18.0 0.01 0.75 0.75 72 1012.3
20240229041004 47 320 6.0 14.0 0.02 0.75 0.75 74 1012.2
20240229040005 48 300 3.0 12.0 0.03 0.75 0.75 88 1012.1
20240229035504 48 298 1.0 6.0 0.03 0.75 0.75 88 1011.8
20240229034005 49 307 4.0 23.0 0.06 0.75 0.75 90 1011.3
20240229033505 49 317 5.0 9.0 0.06 0.75 0.75 91 1011.0
20240229031503 50 275 5.0 12.0 0.09 0.74 0.74 92 1010.6
20240229031004 51 312 3.0 9.0 0.09 0.73 0.73 92 1010.3
20240229030504 52 311 3.0 9.0 0.11 0.73 0.73 93 1010.2
20240229030003 52 285 2.0 12.0 0.11 0.72 0.72 93 1010.3
20240229025504 53 311 3.0 7.0 0.11 0.72 0.72 94 1009.9
20240229025004 53 270 4.0 13.0 0.10 0.71 0.71 94 1009.3
20240229024505 54 281 5.0 13.0 0.10 0.70 0.70 95 1009.3
20240229023504 55 312 3.0 10.0 0.11 0.69 0.69 95 1008.8
20240229023003 55 280 5.0 13.0 0.12 0.68 0.68 94 1008.5
20240229022504 56 297 5.0 17.0 0.13 0.67 0.67 93 1008.2
20240229022004 57 322 9.0 17.0 0.14 0.66 0.66 93 1007.4
20240229021504 59 302 3.0 14.0 0.15 0.65 0.65 98 1006.7
20240229021003 60 296 3.0 12.0 0.16 0.64 0.64 99 1006.6
20240229020504 60 231 2.0 8.0 0.18 0.62 0.62 99 1006.7
20240229020004 59 230 1.0 7.0 0.19 0.61 0.61 99 1006.6
20240229015504 59 195 1.0 6.0 0.21 0.61 0.61 99 1006.5
20240229015004 59 210 2.0 9.0 0.22 0.61 0.61 99 1006.2
20240229014004 59 222 2.0 3.0 0.22 0.59 0.59 98 1006.3
20240229013505 59 209 2.0 9.0 0.22 0.58 0.58 98 1006.1
20240229013004 59 220 3.0 9.0 0.21 0.56 0.56 98 1005.9
20240229012503 59 222 2.0 7.0 0.21 0.54 0.54 98 1006.1
20240229012005 59 174 2.0 9.0 0.20 0.52 0.52 98 1005.9
20240229011504 59 190 2.0 9.0 0.19 0.50 0.50 98 1005.7
20240229011004 59 240 2.0 8.0 0.17 0.48 0.48 98 1005.9
20240229010504 59 190 2.0 8.0 0.14 0.44 0.44 98 1006.1
20240229010003 59 208 2.0 7.0 0.12 0.42 0.42 98 1006.1
20240229004504 59 215 2.0 5.0 0.09 0.38 0.38 98 1005.8
20240229004004 59 193 1.0 6.0 0.08 0.37 0.37 98 1005.7
20240229003504 58 212 1.0 3.0 0.07 0.36 0.36 98 1005.7
20240229002503 58 193 2.0 5.0 0.05 0.33 0.33 98 1005.6
20240229002004 58 219 2.0 5.0 0.04 0.32 0.32 98 1005.7
20240229001005 58 184 3.0 8.0 0.04 0.31 0.31 98 1005.8
20240229000504 58 209 2.0 3.0 0.03 0.30 0.30 98 1006.0
20240229000004 58 192 1.0 5.0 0.04 0.30 0.30 98 1006.0
20240228235504 58 173 2.0 10.0 0.03 0.29 0.29 98 1005.6
20240228235004 58 204 3.0 8.0 0.03 0.29 0.29 98 1005.6
20240228234504 58 206 3.0 8.0 0.03 0.29 0.29 98 1004.6
20240228234005 58 198 2.0 3.0 0.04 0.29 0.29 98 1004.4
20240228233003 58 184 3.0 8.0 0.05 0.28 0.28 97 1004.5
20240228232504 58 182 3.0 5.0 0.06 0.28 0.28 97 1004.5
20240228232005 58 182 3.0 8.0 0.08 0.28 0.28 97 1005.0
20240228231003 58 195 2.0 3.0 0.10 0.27 0.27 97 1005.8
20240228230504 58 195 1.0 10.0 0.11 0.27 0.27 97 1006.0
20240228230004 58 197 2.0 5.0 0.11 0.26 0.26 97 1006.1
20240228225503 58 195 1.0 7.0 0.14 0.26 0.26 97 1006.4
20240228225005 58 209 1.0 3.0 0.16 0.26 0.26 97 1006.6
20240228224004 58 198 2.0 5.0 0.20 0.26 0.25 96 1006.6
20240228223504 58 192 2.0 9.0 0.21 0.25 0.24 96 1006.5
20240228223004 59 215 4.0 10.0 0.22 0.24 0.23 96 1006.5
20240228222504 59 218 3.0 12.0 0.21 0.24 0.22 96 1006.5
20240228222004 59 186 2.0 5.0 0.19 0.22 0.20 95 1006.4
20240228221504 59 214 1.0 5.0 0.18 0.21 0.19 95 1006.6
20240228221004 59 165 1.0 9.0 0.16 0.19 0.17 95 1006.6
20240228220504 59 160 2.0 8.0 0.15 0.18 0.16 94 1006.5
20240228215505 60 121 1.0 3.0 0.11 0.15 0.12 93 1006.5
20240228215004 60 203 1.0 3.0 0.09 0.13 0.10 91 1006.4
20240228214503 61 182 2.0 7.0 0.06 0.10 0.07 90 1006.1
20240228214004 61 314 1.0 8.0 0.04 0.08 0.05 88 1005.9
20240228213504 62 240 2.0 10.0 0.02 0.06 0.03 85 1005.5
20240228213005 63 223 1.0 6.0 0.00 0.04 0.01 83 1005.4
20240228212504 64 218 2.0 9.0 0.00 0.04 0.01 82 1005.2
20240228212004 64 245 3.0 12.0 0.00 0.04 0.01 79 1005.2
20240228211503 65 190 3.0 13.0 0.00 0.04 0.01 77 1005.2
20240228211005 65 181 4.0 15.0 0.00 0.04 0.01 75 1004.9
20240228210504 65 176 3.0 12.0 0.00 0.04 0.01 75 1004.9
20240228210003 65 205 3.0 8.0 0.00 0.04 0.01 75 1004.7
20240228205504 65 218 5.0 12.0 0.00 0.04 0.01 75 1004.6
20240228205003 65 255 5.0 10.0 0.00 0.04 0.01 75 1004.5
20240228204505 65 224 3.0 14.0 0.00 0.04 0.01 76 1004.4
20240228204004 65 258 4.0 10.0 0.00 0.04 0.01 76 1004.2
20240228203505 65 205 3.0 13.0 0.00 0.04 0.01 76 1004.3
20240228202505 65 183 5.0 12.0 0.00 0.04 0.01 75 1004.4
20240228202004 65 193 3.0 12.0 0.00 0.04 0.01 75 1004.3
20240228201504 65 189 3.0 9.0 0.00 0.04 0.01 74 1004.2
20240228201004 65 197 3.0 12.0 0.00 0.04 0.01 74 1004.4
20240228200004 66 212 3.0 14.0 0.00 0.04 0.01 74 1004.7
20240228195504 66 206 2.0 9.0 0.00 0.04 0.01 74 1004.5
20240228195005 66 267 5.0 13.0 0.00 0.04 0.01 73 1003.9
20240228194505 66 217 3.0 17.0 0.00 0.04 0.01 74 1003.5
20240228194003 66 216 2.0 6.0 0.00 0.04 0.01 73 1003.3
20240228193505 66 169 5.0 13.0 0.00 0.04 0.01 73 1003.3
20240228193005 66 200 2.0 10.0 0.00 0.04 0.01 73 1003.8
20240228192503 66 192 3.0 12.0 0.00 0.04 0.01 72 1004.0
20240228192005 67 220 4.0 18.0 0.00 0.04 0.01 71 1003.9
20240228191004 67 204 3.0 15.0 0.00 0.04 0.01 70 1003.8
20240228190504 67 224 5.0 14.0 0.00 0.04 0.01 71 1003.6
20240228185504 66 205 3.0 9.0 0.00 0.04 0.01 72 1004.3
20240228185003 66 197 3.0 9.0 0.00 0.04 0.01 72 1004.5
20240228184505 67 198 5.0 14.0 0.00 0.04 0.01 71 1004.6
20240228183504 67 204 3.0 12.0 0.00 0.04 0.01 70 1004.4
20240228183004 67 215 3.0 17.0 0.00 0.04 0.01 70 1004.3
20240228182505 67 219 3.0 17.0 0.00 0.04 0.01 70 1004.6
20240228182003 67 208 3.0 12.0 0.00 0.04 0.01 70 1004.9
20240228181504 67 212 3.0 13.0 0.00 0.04 0.01 71 1004.9
20240228181003 67 196 3.0 21.0 0.00 0.04 0.01 70 1005.1
20240228180504 68 206 5.0 12.0 0.00 0.04 0.01 69 1005.1
20240228180004 68 175 3.0 10.0 0.00 0.04 0.01 71 1005.1
20240228175504 68 202 5.0 18.0 0.00 0.04 0.01 70 1004.9
20240228175003 68 213 4.0 20.0 0.00 0.04 0.01 70 1005.1
20240228174005 67 227 3.0 10.0 0.00 0.04 0.01 72 1005.1
20240228173504 67 211 6.0 18.0 0.01 0.04 0.01 72 1005.3
20240228172503 67 221 3.0 20.0 0.01 0.04 0.01 72 1005.7
20240228171505 67 213 4.0 9.0 0.01 0.04 0.01 73 1005.8
20240228170504 65 217 5.0 12.0 0.01 0.04 0.01 75 1005.8
20240228170004 65 209 5.0 14.0 0.01 0.04 0.01 76 1005.7
20240228165504 65 222 3.0 7.0 0.01 0.04 0.01 77 1005.8
20240228165003 64 206 3.0 13.0 0.01 0.04 0.01 78 1005.7
20240228164503 64 194 3.0 15.0 0.01 0.04 0.01 80 1006.0
20240228164004 64 197 2.0 17.0 0.01 0.04 0.01 79 1006.0
20240228163504 64 193 3.0 12.0 0.00 0.03 0.00 79 1006.1
20240228163004 64 198 5.0 10.0 0.00 0.03 0.00 78 1006.2
20240228162505 64 227 4.0 14.0 0.00 0.03 0.00 78 1006.4
20240228162004 64 204 3.0 12.0 0.00 0.03 0.00 77 1006.5
20240228161504 64 205 3.0 13.0 0.00 0.03 0.00 77 1006.4
20240228161005 64 211 5.0 12.0 0.00 0.03 0.00 76 1006.5
20240228160503 64 210 2.0 9.0 0.00 0.03 0.00 77 1006.6
20240228160004 64 201 3.0 10.0 0.00 0.03 0.00 77 1006.5
20240228155504 64 207 5.0 16.0 0.00 0.03 0.00 76 1006.7
20240228155004 64 206 5.0 13.0 0.00 0.03 0.00 76 1006.8
20240228154504 64 198 5.0 12.0 0.00 0.03 0.00 76 1006.9
20240228154004 64 217 3.0 12.0 0.00 0.03 0.00 76 1006.9
20240228153504 64 206 3.0 16.0 0.00 0.03 0.00 76 1007.2
20240228153005 64 216 3.0 13.0 0.00 0.03 0.00 77 1007.2
20240228152504 64 212 5.0 16.0 0.00 0.03 0.00 78 1007.3
20240228151504 63 199 3.0 7.0 0.00 0.03 0.00 80 1007.2
20240228151004 63 193 5.0 20.0 0.00 0.03 0.00 80 1007.3
20240228150505 63 201 3.0 9.0 0.00 0.03 0.00 81 1007.3
20240228150004 63 177 6.0 20.0 0.00 0.03 0.00 81 1007.2
20240228145503 63 199 5.0 12.0 0.00 0.03 0.00 80 1007.3
20240228145005 63 210 4.0 13.0 0.00 0.03 0.00 80 1007.3
20240228144504 63 192 3.0 13.0 0.00 0.03 0.00 79 1007.2
20240228144003 63 218 3.0 8.0 0.00 0.03 0.00 80 1007.1
20240228143504 63 225 4.0 9.0 0.00 0.03 0.00 80 1007.3
20240228143005 62 158 4.0 12.0 0.00 0.03 0.00 81 1007.3
20240228142505 62 208 2.0 9.0 0.00 0.03 0.00 82 1007.4
20240228141504 62 212 3.0 12.0 0.00 0.03 0.00 82 1007.5
20240228141004 62 182 3.0 9.0 0.00 0.03 0.00 82 1007.6
20240228140503 62 212 6.0 12.0 0.00 0.03 0.00 82 1007.5
20240228140005 62 204 2.0 8.0 0.00 0.03 0.00 83 1007.7
20240228135004 63 218 4.0 12.0 0.00 0.03 0.00 81 1007.6
20240228134504 63 221 4.0 10.0 0.00 0.03 0.00 81 1007.6
20240228134004 63 199 3.0 17.0 0.00 0.03 0.00 80 1007.6
20240228133504 63 203 3.0 9.0 0.00 0.03 0.00 80 1007.8
20240228133003 63 215 2.0 14.0 0.00 0.03 0.00 81 1007.9
20240228132504 63 212 1.0 5.0 0.00 0.03 0.00 81 1007.8
20240228132003 63 225 2.0 9.0 0.00 0.03 0.00 81 1007.8
20240228131505 63 200 3.0 12.0 0.00 0.03 0.00 81 1007.9
20240228131003 63 201 3.0 9.0 0.00 0.03 0.00 81 1007.9
20240228130504 63 198 2.0 9.0 0.00 0.03 0.00 81 1007.8
20240228130004 63 203 2.0 8.0 0.00 0.03 0.00 81 1007.8
20240228125505 63 203 3.0 13.0 0.00 0.03 0.00 82 1007.8
20240228125004 63 205 2.0 10.0 0.00 0.03 0.00 82 1007.8
20240228124504 63 195 3.0 8.0 0.00 0.03 0.00 82 1007.8
20240228124004 63 208 2.0 6.0 0.00 0.03 0.00 83 1007.6
20240228123504 63 199 2.0 6.0 0.00 0.03 0.00 83 1007.4
20240228122504 63 190 3.0 15.0 0.00 0.03 0.00 83 1007.0
20240228122004 63 201 3.0 9.0 0.00 0.03 0.00 83 1007.1
20240228121504 63 206 2.0 14.0 0.00 0.03 0.00 83 1007.2
20240228121004 62 211 2.0 10.0 0.00 0.03 0.00 83 1007.1
20240228120504 62 199 2.0 3.0 0.00 0.03 0.00 83 1007.2
20240228120004 62 197 3.0 8.0 0.00 0.03 0.00 83 1007.4
20240228115504 63 205 2.0 5.0 0.00 0.03 0.00 83 1007.5
20240228115004 63 210 2.0 8.0 0.00 0.03 0.00 83 1007.5
20240228114505 63 178 2.0 7.0 0.00 0.03 0.00 83 1007.5
20240228114003 63 228 2.0 7.0 0.00 0.03 0.00 83 1007.6
20240228113504 63 214 3.0 10.0 0.00 0.03 0.00 83 1007.6
20240228113004 63 217 2.0 7.0 0.00 0.03 0.00 83 1007.7
20240228112505 63 209 3.0 15.0 0.00 0.03 0.00 83 1007.8
20240228112003 63 225 3.0 12.0 0.00 0.03 0.00 83 1007.6
20240228111504 62 206 5.0 10.0 0.00 0.03 0.00 83 1007.5
20240228111004 62 195 3.0 9.0 0.00 0.03 0.00 84 1007.6